EHI
18 19 22 24 24 23 21 19 16 15 16 14 11 9 8 8 6 5 5 7 7 7 6 5 4 4 3 2 1 0 0 0 0 0 0 0 0 0 0 0 0 0 0
21 21 23 26 27 26 24 20 18 17 17 15 12 10 9 8 7 6 6 6 6 5 4 4 5 4 3 2 1 1 0 0 0 0 0 0 0 0 0 0 0 0 0
24 24 25 29 33 33 29 24 21 19 18 16 14 12 11 12 10 7 5 5 5 4 2 3 4 3 2 1 2 2 1 0 0 0 0 0 0 0 0 0 0 0 0
23 24 26 29 35 36 33 29 25 20 17 16 15 14 16 15 11 7 4 4 5 5 3 2 2 2 1 0 1 2 1 0 0 0 1 1 1 1 0 0 0 0 0
22 24 28 30 32 33 32 30 28 22 17 16 15 15 18 17 13 9 6 4 4 5 4 2 2 2 1 0 0 1 1 1 0 0 1 2 2 2 1 0 0 0 0
25 28 32 33 31 31 31 30 30 27 21 17 15 15 18 18 15 13 11 9 7 6 6 5 4 2 1 0 0 0 0 0 0 0 1 2 3 3 2 1 0 0 0
31 34 38 37 34 33 34 33 34 32 26 19 14 14 16 16 15 14 15 15 12 10 9 9 7 5 3 1 0 0 0 1 1 0 0 1 2 3 3 2 1 0 0
37 40 41 37 33 33 35 36 35 33 29 21 14 12 13 14 13 14 16 17 14 11 10 9 8 7 5 3 1 1 1 1 2 1 1 2 3 3 3 2 1 0 0
40 41 40 36 31 31 33 35 34 32 29 23 17 15 15 15 15 16 17 15 12 10 8 7 7 7 6 3 2 2 1 1 2 2 3 3 3 3 2 2 1 0 0
36 38 38 35 32 30 31 32 32 32 29 24 20 17 17 17 18 17 16 14 10 9 8 7 6 5 5 4 3 3 2 2 2 2 3 3 3 3 2 2 2 1 0
31 35 38 36 33 30 30 30 31 31 29 24 19 16 16 16 17 16 15 12 9 8 7 6 4 4 4 4 4 3 4 4 3 2 3 3 3 2 2 2 2 1 0
30 33 37 36 33 30 31 31 32 31 29 25 19 15 15 15 15 15 13 11 8 7 7 6 4 3 4 6 5 4 4 6 6 5 5 4 3 1 1 1 1 0 0
29 31 34 35 32 30 31 32 32 32 31 27 21 16 15 15 15 14 12 11 9 8 8 8 6 5 5 7 7 6 6 8 9 9 9 6 3 1 0 1 1 0 0
29 30 31 31 29 27 29 30 29 30 30 29 25 19 16 16 15 14 12 11 9 9 9 9 8 7 6 7 8 8 8 10 10 10 9 7 4 1 1 2 1 0 0
29 29 28 27 24 23 24 25 25 25 27 28 27 22 17 15 14 13 12 9 8 9 9 9 9 8 7 7 7 8 10 11 9 7 6 6 4 2 2 2 2 1 0
26 24 24 23 21 18 18 20 20 21 23 25 24 21 18 17 15 14 12 8 6 7 8 8 8 8 8 7 7 8 10 11 8 6 4 3 2 1 2 2 2 1 1
20 19 17 18 18 15 15 17 17 17 19 21 21 19 18 17 16 15 13 9 7 8 9 9 9 10 9 7 7 8 10 10 9 7 4 2 1 0 1 1 1 1 0
19 17 15 16 16 14 14 15 15 16 18 19 20 19 18 18 17 16 15 12 11 11 12 11 10 10 9 7 6 6 8 9 9 8 5 3 1 0 0 0 0 0 0
19 18 17 18 17 15 14 15 15 17 18 19 20 19 17 17 17 16 15 14 13 13 12 11 9 9 8 6 4 5 7 9 10 8 6 4 1 0 0 0 0 0 0
18 18 19 21 19 17 15 14 14 16 18 20 19 17 16 16 15 15 14 13 12 12 10 8 7 7 7 5 3 4 6 8 8 8 6 3 1 0 0 0 0 0 0
18 19 22 22 21 19 16 13 12 13 16 17 16 15 14 14 14 13 12 11 11 11 9 7 6 5 4 4 4 3 4 5 6 6 5 3 1 0 0 0 0 0 0
19 20 21 21 21 20 17 12 10 11 12 13 12 11 12 12 12 12 10 9 9 9 8 7 6 5 4 5 4 2 1 3 4 4 4 3 1 0 0 0 0 0 0
19 18 18 18 18 17 14 11 9 9 10 10 9 8 9 10 10 9 8 8 8 9 8 6 5 5 5 4 3 1 0 1 2 2 2 2 1 0 0 0 0 0 0
13 13 14 15 15 13 10 8 8 9 10 9 8 7 7 9 9 7 6 6 8 8 7 5 4 4 4 4 3 2 1 1 1 1 0 0 0 0 0 0 0 0 0
8 9 10 11 12 10 8 6 8 9 10 9 8 7 7 7 7 5 3 4 6 6 5 3 3 3 3 3 2 2 2 2 0 0 0 0 0 0 0 0 0 0 0
6 7 8 8 9 9 7 6 8 10 9 8 7 7 7 5 5 4 2 2 4 4 2 2 2 2 2 1 1 1 2 1 0 0 0 0 0 0 0 0 0 0 0
Wind_Speed
8 8 9 9 9 8 7 6 6 5 4 3 3 2 2 1 1 1 2 3 2 2 2 1 1 1 1 0 1 0 1 1 1 1 2 2 1 0 1 1 1 2 2
7 7 7 8 9 9 8 7 6 5 5 3 3 2 2 2 2 1 1 2 3 2 2 2 1 0 1 1 1 1 1 1 1 1 1 2 3 2 1 1 2 2 2
10 9 9 8 9 9 9 8 7 6 5 4 2 2 2 2 1 1 0 1 2 2 2 2 1 0 1 0 1 0 1 0 1 1 2 2 1 2 2 1 1 1 1
9 9 9 9 9 9 8 7 6 5 4 4 4 4 3 2 2 2 1 1 1 2 2 1 1 1 1 1 1 0 0 1 0 1 0 2 3 1 2 3 2 1 1
11 11 10 10 10 9 8 7 6 5 4 4 4 4 3 2 1 1 1 1 0 1 1 1 1 1 1 1 1 1 1 1 1 1 0 0 0 1 2 2 3 2 2
9 9 8 8 8 7 7 7 7 5 5 5 4 4 4 3 3 2 1 1 0 1 1 1 1 1 1 1 1 1 1 1 1 1 1 1 1 1 2 2 2 2 3
9 9 10 10 10 10 8 8 8 6 5 5 4 4 4 4 4 3 2 2 1 1 1 1 1 1 1 1 1 0 1 1 1 1 1 1 2 2 2 2 2 2 2
8 9 10 11 10 10 9 8 8 7 6 5 4 4 4 3 2 3 2 2 2 2 2 1 1 1 0 0 0 0 1 1 1 2 2 1 2 2 2 2 2 1 2
8 8 10 10 9 9 8 8 8 7 6 5 4 3 3 3 3 2 2 2 2 2 1 1 1 1 1 1 1 1 1 1 1 1 2 2 2 2 2 2 3 3 2
7 7 7 8 8 8 7 6 6 7 6 6 5 4 3 3 3 2 2 2 2 1 1 1 1 1 1 1 1 1 1 1 1 1 1 1 2 2 1 2 2 2 3
9 8 7 7 7 7 7 7 6 6 5 5 4 3 3 3 3 2 2 2 1 2 2 2 2 2 1 1 1 1 1 1 2 1 1 2 2 1 1 1 1 2 2
8 8 7 6 6 6 6 6 5 6 6 5 4 4 3 3 3 2 2 2 2 2 2 2 2 2 2 1 1 2 1 1 2 2 2 3 2 2 2 1 2 2 3
7 7 6 5 5 5 5 5 5 5 5 5 4 4 3 3 3 3 2 2 2 2 2 2 2 2 2 1 1 1 1 2 2 2 2 2 1 2 2 2 2 2 2
7 7 6 5 5 5 5 5 5 5 5 5 4 4 4 4 4 3 3 2 2 2 2 2 3 3 2 2 2 1 1 2 2 2 2 2 2 3 3 2 3 2 2
6 6 6 5 5 5 4 4 4 4 5 5 4 4 3 3 3 3 3 2 2 2 2 2 2 2 2 2 1 2 2 2 2 2 2 3 3 4 3 2 3 2 2
4 5 5 5 5 5 4 4 4 4 4 4 4 3 3 3 3 3 2 2 2 2 1 1 2 2 2 2 2 2 2 2 2 2 3 3 3 4 4 4 3 3 3
5 5 5 5 5 5 5 5 4 4 4 4 4 3 3 3 2 2 2 2 2 1 1 2 2 2 3 3 3 3 2 2 2 2 2 2 2 2 2 3 4 4 5
5 4 3 4 3 4 4 4 4 4 4 3 3 3 3 2 2 2 2 3 2 2 2 2 2 2 3 4 4 3 2 2 2 3 2 2 2 2 1 1 2 3 4
4 4 4 4 3 3 4 4 4 4 4 3 2 2 3 3 2 3 3 3 2 2 3 2 3 3 3 4 3 2 1 1 2 2 2 2 2 4 2 1 2 3 4
4 3 4 4 4 3 4 5 3 3 3 3 3 2 2 2 3 3 3 2 2 3 2 2 2 2 3 3 2 1 1 1 2 2 3 4 4 4 3 2 2 3 4
4 4 4 4 3 3 4 4 3 2 2 2 2 2 2 3 3 2 2 1 1 1 1 1 1 2 2 2 2 1 1 2 2 2 3 3 5 5 5 4 4 6 5
4 5 4 3 2 3 4 3 1 1 1 2 2 1 2 2 1 1 1 1 1 1 1 1 2 2 2 2 2 3 3 3 3 3 3 4 5 5 5 4 4 5 4
4 4 5 3 2 2 3 3 1 1 2 1 1 1 1 1 1 1 1 1 1 1 1 2 2 2 2 2 3 3 3 4 3 3 5 6 5 4 3 4 5 3 1
2 3 4 3 1 1 1 2 1 1 2 1 1 1 1 1 1 1 1 2 2 2 2 2 2 2 2 2 2 2 2 3 2 3 4 5 3 2 3 3 3 2 2
1 2 3 2 2 1 1 1 1 2 1 0 1 1 1 1 1 1 2 3 3 4 4 3 3 2 2 4 4 2 2 2 2 2 1 1 2 2 2 2 2 2 2
2 2 2 2 1 1 0 0 0 2 2 0 1 1 1 2 2 2 2 3 3 4 5 6 4 3 4 4 4 3 3 3 2 1 1 2 2 2 2 2 3 3 3
Wind_Direction
176 169 170 168 159 157 156 159 152 157 150 141 138 135 142 153 148 154 154 142 136 124 110 108 104 90 106 231 278 316 0 324 2 40 4 354 336 201 194 206 185 192 208
167 170 171 168 167 165 164 162 163 165 165 165 164 156 147 156 155 146 130 132 130 138 130 119 134 97 53 1 359 27 16 323 33 104 75 6 347 338 300 196 181 188 202
175 176 176 176 168 168 172 170 169 165 165 154 129 111 91 79 83 110 161 166 147 137 127 133 116 95 117 214 317 11 108 351 349 110 134 136 245 309 320 286 231 197 197
176 175 178 176 174 175 170 162 158 155 153 142 140 144 148 162 185 186 187 164 151 144 140 116 132 161 163 192 273 252 195 128 319 322 158 171 171 171 312 320 307 261 214
179 177 177 175 172 168 162 155 149 147 141 142 149 147 150 164 155 152 144 144 157 185 162 134 154 180 195 203 207 206 199 176 181 202 245 334 136 173 174 275 306 315 272
177 174 167 156 161 164 159 154 152 155 151 150 152 154 157 155 147 158 162 171 240 250 210 165 162 186 200 208 211 210 191 196 178 178 170 175 187 213 193 221 265 284 284
171 169 159 160 165 168 167 163 158 160 163 162 166 167 165 158 165 174 175 174 200 226 239 207 185 202 210 195 198 185 224 220 203 209 214 205 211 196 182 184 239 270 286
164 168 169 169 169 166 165 166 168 169 171 169 174 175 167 167 175 177 172 180 197 211 215 199 195 220 215 188 159 180 236 211 220 234 219 221 238 207 193 186 177 260 295
157 168 174 170 166 166 169 169 170 172 172 170 166 163 164 161 166 169 171 180 200 201 193 194 197 206 200 193 165 202 250 244 235 240 227 226 247 230 220 200 179 178 225
156 162 162 160 163 161 158 164 171 175 172 169 173 169 177 173 166 162 177 188 202 206 194 209 204 211 235 239 208 251 268 253 263 244 244 255 260 256 247 222 203 191 193
159 159 155 155 157 158 158 165 167 165 165 171 178 175 179 174 158 163 186 197 209 205 199 202 195 204 224 236 238 266 275 268 281 290 271 263 256 257 266 241 209 208 185
152 152 145 147 150 154 156 157 161 162 167 171 176 182 178 171 172 185 200 198 210 214 206 202 202 216 228 234 238 266 279 253 269 282 287 279 274 267 255 232 229 226 204
133 130 133 139 143 146 151 152 163 167 169 169 173 178 178 179 191 201 206 203 213 224 220 209 216 229 229 221 230 232 249 246 248 247 246 262 262 274 268 250 242 243 234
134 134 137 143 143 145 152 158 172 171 168 169 172 180 191 194 200 207 210 210 208 218 228 226 225 225 222 214 216 239 257 261 264 253 244 251 238 248 256 254 241 234 232
131 138 143 144 144 149 156 163 169 170 169 166 173 188 193 188 192 206 214 211 212 222 230 235 244 243 227 226 225 243 250 264 285 282 268 262 267 264 251 252 235 217 221
140 142 144 147 152 159 161 160 169 165 160 165 178 182 181 185 190 201 206 214 229 237 231 230 231 249 261 271 244 231 249 255 261 275 283 283 288 288 282 279 258 226 218
149 158 166 166 164 162 157 165 171 164 158 170 176 178 181 184 194 197 191 212 223 230 232 234 226 246 262 260 251 242 230 234 242 244 261 286 302 305 296 298 300 269 253
147 157 162 156 160 161 156 153 144 155 164 169 173 177 171 181 191 186 207 225 225 216 224 237 235 237 267 269 261 250 227 243 253 244 241 250 274 281 268 289 307 285 270
145 155 150 142 142 149 151 138 137 148 154 167 181 187 178 186 197 209 222 228 224 230 229 230 226 229 267 279 264 225 211 247 264 256 253 238 257 277 281 285 286 294 292
113 127 121 113 120 133 134 130 138 144 169 180 189 197 186 197 213 222 224 225 224 230 231 246 243 231 252 285 287 210 193 246 268 275 268 261 259 268 266 239 245 273 280
108 111 110 112 128 130 119 120 122 152 190 175 177 188 193 196 203 216 219 227 234 234 235 242 260 252 254 297 307 220 195 227 247 264 273 273 276 277 277 262 238 247 260
101 106 103 94 98 108 113 114 145 197 148 147 158 182 196 203 201 204 232 224 208 215 235 248 271 271 267 257 263 254 244 236 226 246 258 269 282 280 281 275 266 268 270
116 112 112 103 87 100 118 133 207 144 105 111 171 197 205 213 197 193 215 228 215 212 231 232 247 269 281 280 275 272 266 257 246 257 268 275 284 284 274 277 281 283 261
113 113 113 113 110 106 115 152 166 125 112 129 218 199 186 228 230 209 200 200 213 218 225 233 246 263 269 278 293 286 275 287 283 289 296 298 295 297 290 297 297 277 252
99 109 124 142 164 150 132 115 118 118 118 162 236 231 215 209 219 241 235 223 224 213 209 216 214 213 244 252 242 229 247 256 260 278 308 318 322 316 312 313 309 299 302
114 111 115 126 132 119 109 315 181 138 137 189 255 232 221 222 221 231 290 301 269 255 228 216 208 227 235 255 247 251 258 265 243 175 250 266 264 266 271 277 288 285 283